This demonstration page uses our WeatherBlox Daily Observations layout. Learn more.

36.17497, -115.13722

Hourly Observations for October 21, 2018

Temp ( °F °C ) Dew Point ( °F °C ) Humidity (%) Winds ( mph kmh ) Pressure ( in mb ) Visibility ( mi km ) Precip ( " mm )
12:53 am 00:53 Clear 66 18.9 43 6.1 43 43 NW 7 11 29.94 1014 10 16.09344 0 0
1:53 am 01:53 Mostly Clear 67 19.4 44 6.7 44 44 Calm 29.94 1014 10 16.09344 0 0
2:53 am 02:53 Mostly Cloudy with Light Rain 64 17.8 51 10.6 63 63 E 12 19 29.97 1015 6 9.656064 0.06 1.524
3:53 am 03:53 Mostly Cloudy 63 17.2 53 11.7 70 70 NW 12 19 29.94 1014 10 16.09344 0.001 0.001
4:53 am 04:53 Partly Cloudy 63 17.2 53 11.7 70 70 ESE 6 9 29.94 1014 10 16.09344 0.001 0.001
5:53 am 05:53 Mostly Cloudy with Light Rain 62 16.7 56 13.3 80 80 N 6 9 29.97 1015 10 16.09344 0.08 2.032
6:53 am 06:53 Cloudy with Light Rain 62 16.7 56 13.3 80 80 E 8 13 30 1016 10 16.09344 0.05 1.27
7:53 am 07:53 Cloudy 62 16.7 57 13.9 84 84 SSE 5 7 30.03 1017 10 16.09344 0.001 0.001
8:53 am 08:53 Mostly Cloudy 60 15.6 56 13.3 86 86 S 6 9 30.06 1018 10 16.09344 0 0
9:53 am 09:53 Cloudy 68 20 56 13.3 65 65 N 3 6 30.06 1018 10 16.09344 0 0
10:53 am 10:53 Cloudy 71 21.7 54 12.2 55 55 ENE 3 6 30.03 1017 10 16.09344 0 0
11:53 am 11:53 Mostly Cloudy 70 21.1 55 12.8 59 59 SE 12 19 30.03 1017 10 16.09344 0 0
12:53 pm 12:53 Sunny 70 21.1 54 12.2 57 57 SE 6 9 30 1016 10 16.09344 0 0
1:53 pm 13:53 Sunny 74 23.3 49 9.4 41 41 ESE 12 19 29.97 1015 10 16.09344 0 0
2:53 pm 14:53 Sunny 75 23.9 48 8.9 39 39 E 7 11 29.97 1015 10 16.09344 0 0
3:53 pm 15:53 Sunny 76 24.4 50 10 40 40 ESE 10 17 29.94 1014 10 16.09344 0 0
4:53 pm 16:53 Sunny 75 23.9 50 10 41 41 ESE 9 15 29.91 1013 10 16.09344 0 0
5:53 pm 17:53 Sunny 72 22.2 51 10.6 48 48 SE 7 11 29.91 1013 10 16.09344 0 0
6:53 pm 18:53 Clear 70 21.1 52 11.1 53 53 SSE 5 7 29.91 1013 10 16.09344 0 0
7:01 pm 19:01 Clear with Nearby Thunderstorms 70 21.1 52 11.1 53 53 SSE 3 6 29.85 1011 10 16.09344 0 0
7:53 pm 19:53 Clear with Nearby Thunderstorms 70 21.1 52 11.1 53 53 S 3 6 29.91 1013 10 16.09344 0 0
8:24 pm 20:24 Clear 63 17.2 52 11.1 68 68 Calm 29.88 1012 10 16.09344 0 0
8:53 pm 20:53 Clear 67 19.4 53 11.7 61 61 NNW 6 9 29.94 1014 10 16.09344 0 0
9:43 pm 21:43 Partly Cloudy with Nearby Thunderstorms 66 18.9 53 11.7 63 63 NW 7 11 29.88 1012 10 16.09344 0 0
9:53 pm 21:53 Mostly Clear with Nearby Thunderstorms 66 18.9 53 11.7 63 63 NW 6 9 29.94 1014 10 16.09344 0 0
10:18 pm 22:18 Mostly Clear with Thunderstorms 66 18.9 53 11.7 63 63 WNW 7 11 29.88 1012 10 16.09344 0 0
10:36 pm 22:36 Partly Cloudy 65 18.3 53 11.7 66 66 WNW 6 9 29.88 1012 10 16.09344 0 0
10:48 pm 22:48 Partly Cloudy with Nearby Thunderstorms 64 18 54 12 68 68 WNW 6 9 29.88 1012 10 16.09344 0 0
10:53 pm 22:53 Partly Cloudy with Nearby Thunderstorms 66 18.9 53 11.7 63 63 NW 6 9 29.94 1014 10 16.09344 0 0
11:03 pm 23:03 Partly Cloudy 65 18.3 53 11.7 66 66 NW 6 9 29.88 1012 10 16.09344 0 0
11:53 pm 23:53 Mostly Cloudy 65 18.3 52 11.1 63 63 WNW 7 11 29.94 1014 10 16.09344 0 0

Powered by AerisWeather